| time (UTC) | temp C | wind direction | speed KPH | gust KPH | rain 1hr cm | rain 24hr cm | rain mn cm | humidity % | barometer mb |
| 20260831230705 | 20 | 193 | 0.0 | 0.0 | 0.00 | 0.03 | 0.03 | 63 | 1017.0 |
| 20260831224705 | 21 | 192 | 0.0 | 1.6 | 0.00 | 0.03 | 0.03 | 61 | 1017.1 |
| 20260831224205 | 21 | 192 | 3.2 | 4.8 | 0.00 | 0.03 | 0.03 | 61 | 1017.2 |
| 20260831222704 | 22 | 195 | 0.0 | 4.8 | 0.00 | 0.03 | 0.03 | 59 | 1017.3 |
| 20260831222205 | 22 | 202 | 3.2 | 4.8 | 0.00 | 0.03 | 0.03 | 58 | 1017.3 |
| 20260831220705 | 22 | 173 | 1.6 | 4.8 | 0.00 | 0.03 | 0.03 | 55 | 1017.4 |
| 20260831220204 | 22 | 173 | 3.2 | 4.8 | 0.00 | 0.03 | 0.03 | 55 | 1017.4 |
| 20260831212705 | 22 | 0 | 3.2 | 4.8 | 0.00 | 0.46 | 0.03 | 56 | 1017.5 |
| 20260831212205 | 22 | 273 | 3.2 | 11.3 | 0.00 | 0.46 | 0.03 | 55 | 1017.5 |
| 20260831210705 | 22 | 266 | 4.8 | 8.0 | 0.00 | 0.46 | 0.03 | 55 | 1017.6 |
| 20260831204204 | 22 | 286 | 3.2 | 9.7 | 0.00 | 0.46 | 0.03 | 55 | 1017.7 |
| 20260831202704 | 22 | 271 | 4.8 | 9.7 | 0.00 | 0.46 | 0.03 | 54 | 1017.7 |
| 20260831202205 | 22 | 263 | 4.8 | 9.7 | 0.00 | 0.46 | 0.03 | 54 | 1017.8 |
| 20260831200704 | 22 | 285 | 3.2 | 8.0 | 0.00 | 0.46 | 0.03 | 53 | 1017.9 |
| 20260831200205 | 22 | 284 | 4.8 | 11.3 | 0.00 | 0.46 | 0.03 | 54 | 1017.9 |
| 20260831194704 | 22 | 294 | 4.8 | 9.7 | 0.00 | 0.46 | 0.03 | 53 | 1018.0 |
| 20260831194204 | 22 | 300 | 3.2 | 11.3 | 0.00 | 0.46 | 0.03 | 53 | 1018.1 |
| 20260831192204 | 22 | 265 | 4.8 | 8.0 | 0.00 | 0.46 | 0.03 | 57 | 1018.0 |
| 20260831190704 | 22 | 161 | 3.2 | 4.8 | 0.00 | 0.48 | 0.03 | 57 | 1018.2 |
| 20260831184704 | 22 | 288 | 3.2 | 8.0 | 0.00 | 0.79 | 0.03 | 60 | 1018.6 |
| 20260831184204 | 22 | 284 | 3.2 | 11.3 | 0.00 | 0.79 | 0.03 | 57 | 1018.6 |
| 20260831182705 | 21 | 40 | 1.6 | 4.8 | 0.00 | 0.79 | 0.03 | 60 | 1018.8 |
| 20260831182206 | 21 | 276 | 4.8 | 11.3 | 0.00 | 0.79 | 0.03 | 60 | 1018.9 |
| 20260831180704 | 21 | 298 | 4.8 | 11.3 | 0.00 | 0.79 | 0.03 | 60 | 1018.9 |
| 20260831180204 | 21 | 292 | 4.8 | 12.9 | 0.00 | 0.79 | 0.03 | 58 | 1018.9 |
| 20260831174704 | 21 | 263 | 3.2 | 8.0 | 0.00 | 0.79 | 0.03 | 62 | 1018.9 |
| 20260831174204 | 21 | 254 | 4.8 | 8.0 | 0.00 | 0.79 | 0.03 | 60 | 1018.9 |
| 20260831172704 | 21 | 155 | 3.2 | 8.0 | 0.00 | 0.79 | 0.03 | 63 | 1019.0 |
| 20260831172204 | 21 | 148 | 3.2 | 9.7 | 0.00 | 0.79 | 0.03 | 60 | 1019.1 |
| 20260831170704 | 20 | 38 | 1.6 | 4.8 | 0.00 | 0.79 | 0.03 | 64 | 1019.3 |
| 20260831170205 | 20 | 325 | 3.2 | 9.7 | 0.00 | 0.79 | 0.03 | 61 | 1019.4 |
| 20260831164704 | 20 | 257 | 3.2 | 8.0 | 0.00 | 0.79 | 0.03 | 65 | 1019.5 |
| 20260831164204 | 20 | 254 | 3.2 | 8.0 | 0.00 | 0.79 | 0.03 | 66 | 1019.5 |
| 20260831162704 | 20 | 285 | 3.2 | 4.8 | 0.00 | 0.79 | 0.03 | 67 | 1019.5 |
| 20260831162204 | 20 | 303 | 0.0 | 4.8 | 0.00 | 0.79 | 0.03 | 67 | 1019.7 |
| 20260831160704 | 20 | 196 | 3.2 | 8.0 | 0.00 | 0.79 | 0.03 | 66 | 1019.6 |
| 20260831160205 | 19 | 105 | 1.6 | 4.8 | 0.00 | 0.79 | 0.03 | 68 | 1019.6 |
| 20260831154704 | 19 | 102 | 1.6 | 4.8 | 0.00 | 0.79 | 0.03 | 64 | 1019.8 |
| 20260831154205 | 19 | 103 | 3.2 | 8.0 | 0.00 | 0.79 | 0.03 | 64 | 1019.8 |
| 20260831152704 | 19 | 76 | 1.6 | 4.8 | 0.00 | 0.79 | 0.03 | 68 | 1019.9 |
| 20260831152204 | 19 | 76 | 4.8 | 8.0 | 0.00 | 0.79 | 0.03 | 68 | 1020.0 |
| 20260831150704 | 18 | 65 | 3.2 | 8.0 | 0.00 | 0.79 | 0.03 | 72 | 1020.1 |
| 20260831144204 | 18 | 82 | 3.2 | 9.7 | 0.00 | 0.79 | 0.03 | 75 | 1020.4 |
| 20260831142704 | 17 | 98 | 3.2 | 8.0 | 0.00 | 0.79 | 0.03 | 82 | 1020.4 |
| 20260831142204 | 17 | 77 | 3.2 | 4.8 | 0.00 | 0.79 | 0.03 | 85 | 1020.5 |
| 20260831140704 | 16 | 71 | 4.8 | 8.0 | 0.00 | 0.79 | 0.03 | 96 | 1020.7 |
| 20260831140204 | 15 | 106 | 3.2 | 8.0 | 0.00 | 0.79 | 0.03 | 96 | 1020.7 |
| 20260831134704 | 14 | 119 | 1.6 | 3.2 | 0.00 | 0.79 | 0.03 | 97 | 1020.8 |
| 20260831134204 | 14 | 119 | 1.6 | 4.8 | 0.00 | 0.79 | 0.03 | 97 | 1020.9 |
| 20260831132704 | 13 | 75 | 1.6 | 3.2 | 0.00 | 0.79 | 0.03 | 96 | 1020.8 |
| 20260831132204 | 13 | 75 | 3.2 | 4.8 | 0.00 | 0.79 | 0.03 | 97 | 1020.8 |
| 20260831130703 | 12 | 55 | 3.2 | 4.8 | 0.00 | 0.79 | 0.03 | 96 | 1020.6 |
| 20260831124704 | 11 | 50 | 1.6 | 1.6 | 0.00 | 0.79 | 0.03 | 96 | 1020.7 |
| 20260831124204 | 11 | 50 | 1.6 | 3.2 | 0.00 | 0.79 | 0.03 | 96 | 1020.7 |
| 20260831122704 | 11 | 50 | 1.6 | 3.2 | 0.00 | 0.79 | 0.03 | 96 | 1020.6 |
| 20260831122204 | 11 | 50 | 0.0 | 4.8 | 0.00 | 0.79 | 0.03 | 96 | 1020.6 |
| 20260831120704 | 10 | 49 | 0.0 | 1.6 | 0.00 | 0.79 | 0.03 | 96 | 1020.3 |
| 20260831120204 | 10 | 49 | 1.6 | 3.2 | 0.00 | 0.79 | 0.03 | 96 | 1020.3 |
| 20260831114704 | 9 | 49 | 1.6 | 3.2 | 0.03 | 0.79 | 0.03 | 96 | 1020.3 |
| 20260831114204 | 9 | 49 | 1.6 | 3.2 | 0.03 | 0.79 | 0.03 | 96 | 1020.3 |
| 20260831112704 | 8 | 49 | 0.0 | 3.2 | 0.03 | 0.79 | 0.03 | 96 | 1020.2 |
| 20260831112204 | 8 | 49 | 1.6 | 3.2 | 0.03 | 0.79 | 0.03 | 96 | 1020.1 |
| 20260831110704 | 8 | 49 | 0.0 | 1.6 | 0.03 | 0.79 | 0.03 | 95 | 1020.0 |
| 20260831104704 | 7 | 49 | 0.0 | 1.6 | 0.00 | 0.79 | 0.00 | 95 | 1020.0 |
| 20260831104204 | 7 | 49 | 0.0 | 3.2 | 0.00 | 0.79 | 0.00 | 95 | 1019.9 |
| 20260831102704 | 7 | 49 | 1.6 | 3.2 | 0.00 | 0.79 | 0.00 | 95 | 1019.7 |
| 20260831102204 | 7 | 49 | 1.6 | 3.2 | 0.00 | 0.79 | 0.00 | 95 | 1019.6 |
| 20260831100704 | 7 | 49 | 1.6 | 3.2 | 0.00 | 0.79 | 0.00 | 95 | 1019.6 |
| 20260831100204 | 7 | 49 | 1.6 | 4.8 | 0.00 | 0.79 | 0.00 | 95 | 1019.5 |
| 20260831094704 | 7 | 46 | 0.0 | 1.6 | 0.00 | 0.79 | 0.00 | 95 | 1019.3 |
| 20260831094204 | 8 | 46 | 1.6 | 3.2 | 0.00 | 0.79 | 0.00 | 95 | 1019.3 |
| 20260831092704 | 8 | 46 | 0.0 | 1.6 | 0.00 | 0.79 | 0.00 | 95 | 1019.2 |
| 20260831092204 | 8 | 46 | 0.0 | 1.6 | 0.00 | 0.79 | 0.00 | 95 | 1019.3 |
| 20260831090704 | 8 | 46 | 0.0 | 0.0 | 0.00 | 0.79 | 0.00 | 95 | 1019.1 |
| 20260831090204 | 8 | 46 | 0.0 | 1.6 | 0.00 | 0.79 | 0.00 | 95 | 1019.0 |
| 20260831084704 | 8 | 46 | 0.0 | 0.0 | 0.00 | 0.79 | 0.00 | 95 | 1018.9 |
| 20260831082704 | 8 | 46 | 0.0 | 1.6 | 0.00 | 0.79 | 0.00 | 95 | 1018.9 |
| 20260831082204 | 8 | 46 | 0.0 | 3.2 | 0.00 | 0.79 | 0.00 | 95 | 1018.9 |
| 20260831080703 | 8 | 46 | 0.0 | 0.0 | 0.00 | 0.79 | 0.00 | 95 | 1018.8 |
| 20260831080203 | 8 | 46 | 0.0 | 0.0 | 0.00 | 0.79 | 0.00 | 95 | 1018.8 |
| 20260831072705 | 9 | 46 | 0.0 | 1.6 | 0.00 | 0.79 | 0.00 | 95 | 1018.8 |
| 20260831064705 | 10 | 46 | 0.0 | 0.0 | 0.00 | 0.79 | 0.00 | 95 | 1018.7 |
| 20260831064205 | 10 | 46 | 0.0 | 0.0 | 0.00 | 0.79 | 0.00 | 95 | 1018.7 |
| 20260831062705 | 10 | 46 | 0.0 | 0.0 | 0.00 | 0.79 | 0.00 | 95 | 1018.7 |
| 20260831062205 | 10 | 46 | 0.0 | 0.0 | 0.00 | 0.79 | 0.00 | 95 | 1018.7 |
| 20260831060705 | 10 | 46 | 0.0 | 0.0 | 0.00 | 0.79 | 0.00 | 95 | 1018.7 |
| 20260831060205 | 10 | 46 | 0.0 | 0.0 | 0.00 | 0.79 | 0.00 | 95 | 1018.8 |
| 20260831054205 | 11 | 46 | 0.0 | 3.2 | 0.00 | 0.79 | 0.00 | 95 | 1018.8 |
| 20260831052705 | 11 | 46 | 0.0 | 0.0 | 0.00 | 0.79 | 0.00 | 95 | 1018.5 |
| 20260831052205 | 11 | 46 | 0.0 | 1.6 | 0.00 | 0.79 | 0.00 | 95 | 1018.6 |
| 20260831050705 | 11 | 46 | 0.0 | 1.6 | 0.00 | 0.79 | 0.00 | 95 | 1018.6 |
| 20260831050205 | 11 | 46 | 1.6 | 3.2 | 0.00 | 0.81 | 0.00 | 95 | 1018.6 |
| 20260831044706 | 11 | 46 | 0.0 | 0.0 | 0.00 | 0.91 | 0.00 | 95 | 1018.5 |
| 20260831042705 | 11 | 46 | 0.0 | 0.0 | 0.00 | 1.02 | 0.00 | 95 | 1018.6 |
| 20260831042205 | 11 | 46 | 0.0 | 1.6 | 0.00 | 1.04 | 0.00 | 95 | 1018.5 |
| 20260831040705 | 11 | 46 | 0.0 | 0.0 | 0.00 | 1.04 | 0.00 | 95 | 1018.4 |
| 20260831040205 | 12 | 46 | 0.0 | 3.2 | 0.00 | 1.04 | 0.00 | 95 | 1018.4 |
| 20260831034705 | 12 | 46 | 0.0 | 0.0 | 0.00 | 1.04 | 1.04 | 94 | 1018.4 |
| 20260831034205 | 12 | 46 | 0.0 | 0.0 | 0.00 | 1.04 | 1.04 | 95 | 1018.3 |
| 20260831032705 | 12 | 46 | 0.0 | 0.0 | 0.00 | 1.04 | 1.04 | 94 | 1018.1 |
| 20260831032204 | 12 | 46 | 0.0 | 1.6 | 0.00 | 1.04 | 1.04 | 94 | 1018.1 |
| 20260831030705 | 12 | 46 | 0.0 | 0.0 | 0.00 | 1.04 | 1.04 | 94 | 1017.7 |
| 20260831030205 | 12 | 46 | 0.0 | 0.0 | 0.00 | 1.04 | 1.04 | 94 | 1017.6 |
| 20260831024704 | 12 | 46 | 0.0 | 0.0 | 0.00 | 1.04 | 1.04 | 94 | 1017.6 |
| 20260831024205 | 12 | 46 | 0.0 | 0.0 | 0.00 | 1.04 | 1.04 | 94 | 1017.6 |
| 20260831022705 | 13 | 46 | 0.0 | 0.0 | 0.00 | 1.04 | 1.04 | 94 | 1017.4 |
| 20260831022205 | 13 | 46 | 0.0 | 3.2 | 0.00 | 1.04 | 1.04 | 94 | 1017.2 |
| 20260831020705 | 13 | 46 | 1.6 | 4.8 | 0.00 | 1.04 | 1.04 | 94 | 1017.0 |
| 20260831020205 | 13 | 41 | 0.0 | 1.6 | 0.00 | 1.04 | 1.04 | 94 | 1017.1 |
| 20260831014705 | 13 | 40 | 1.6 | 1.6 | 0.00 | 1.04 | 1.04 | 93 | 1017.2 |
| 20260831014205 | 13 | 40 | 0.0 | 3.2 | 0.00 | 1.04 | 1.04 | 93 | 1017.2 |
| 20260831012705 | 13 | 40 | 0.0 | 1.6 | 0.00 | 1.04 | 1.04 | 93 | 1017.0 |
| 20260831012205 | 13 | 40 | 0.0 | 1.6 | 0.00 | 1.04 | 1.04 | 93 | 1016.9 |
| 20260831010705 | 14 | 40 | 0.0 | 0.0 | 0.00 | 1.04 | 1.04 | 92 | 1016.8 |
| 20260831010205 | 14 | 40 | 0.0 | 0.0 | 0.00 | 1.04 | 1.04 | 92 | 1016.5 |
| 20260831004704 | 14 | 40 | 0.0 | 0.0 | 0.00 | 1.04 | 1.04 | 91 | 1016.4 |
| 20260831004206 | 15 | 40 | 0.0 | 1.6 | 0.00 | 1.04 | 1.04 | 91 | 1016.3 |
| 20260831002705 | 15 | 40 | 0.0 | 1.6 | 0.00 | 1.04 | 1.04 | 91 | 1015.9 |
| 20260831002205 | 15 | 40 | 0.0 | 3.2 | 0.00 | 1.04 | 1.04 | 92 | 1015.9 |
| 20260831000705 | 15 | 40 | 0.0 | 1.6 | 0.00 | 1.04 | 1.04 | 92 | 1015.5 |
| 20260831000205 | 15 | 40 | 0.0 | 1.6 | 0.00 | 1.04 | 1.04 | 92 | 1015.4 |
| 20260830234704 | 15 | 40 | 0.0 | 0.0 | 0.00 | 1.04 | 1.04 | 91 | 1015.1 |
| 20260830234204 | 15 | 40 | 0.0 | 3.2 | 0.00 | 1.04 | 1.04 | 91 | 1014.9 |
| 20260830232705 | 16 | 40 | 0.0 | 1.6 | 0.00 | 1.04 | 1.04 | 90 | 1014.7 |
| 20260830232205 | 16 | 40 | 0.0 | 1.6 | 0.00 | 1.04 | 1.04 | 90 | 1014.6 |